Voltar ao catálogo

STARLINK-35056

AtivoComunicaçõesVLEO
NORAD 66266·PAYLOAD·🇺🇸 United States

Lançado Oct 31, 2025 de Vandenberg Space Force Base

Loading…

Próximas Passagens (próximas 24 horas)

TLE

AtualizadoSource: CelesTrak SupGP

Época: Sep 14, 2026, 22:40 UTC

1 66266C 25247B   26257.94493056  .00003769  00000+0  11141-3 0  2570
2 66266  53.1598  29.9984 0001270  80.8563 255.8214 15.34377655    14

Acompanhe STARLINK-35056 em tempo real com AllMySat

Download on the App Store